Regional Weather Roundup
Issued by NWS Cleveland, OH

Home | Current Version | Previous Version | Text Only | Print | Product List | Glossary Off
Versions: 1 2 3 4 5 6 7 8 9 10 11 12 13 14 15 16 17 18 19 20 21 22 23 24 25 26 27 28 29 30 31 32 33 34 35 36 37 38 39 40 41 42 43 44 45 46 47 48 49 50

000
ASUS41 KCLE 020902
RWRCLE
OHIO REGIONAL WEATHER ROUNDUP
NATIONAL WEATHER SERVICE CLEVELAND, OH
500 AM EDT WED SEP 02 2015

NOTE: "FAIR" INDICATES FEW OR NO CLOUDS BELOW 12,000 FEET WITH NO
SIGNIFICANT WEATHER AND/OR OBSTRUCTIONS TO VISIBILITY.

OHZ001>008-015>018-024>027-034-035-043-044-021000-
   NORTHWEST OHIO

CITY           SKY/WX    TMP DP  RH WIND       PRES   REMARKS
DEFIANCE       CLEAR     69  66  90 S3        30.07S
FINDLAY        PTCLDY    68  65  90 SW3       30.08S
TOLEDO EXPRESS CLEAR     68  66  93 SW3       30.06S
TOLEDO EXEC    CLEAR     69  65  86 SW5       30.07S
LIMA           MOCLDY    70  66  87 SW5       30.10S
$$

OHZ009>014-019>023-028>033-038-089-021000-
   NORTHEAST OHIO

CITY           SKY/WX    TMP DP  RH WIND       PRES   REMARKS
CLE-HOPKINS    PTCLDY    70  66  87 S7        30.10S
CLE-LAKEFRONT  CLEAR     74  66  76 SW6       30.06S
CUY CO. ARPT   NOT AVBL
LORAIN-ELYRIA  CLEAR     67  65  93 SW7       30.09S FOG
ASHTABULA      MOCLDY    67  66  97 CALM      30.09S FOG
AKRON-CANTON   MOCLDY    70  66  87 SW3       30.10F FOG
WOOSTER        PTCLDY    65  64  97 CALM      30.11S FOG
MANSFIELD      PTCLDY    69  65  86 SW5       30.11S
YOUNGSTOWN     CLOUDY    70  67  90 CALM      30.10S
$$

OHZ042-051>053-060>062-070>072-077>081-021000-
  SOUTHWEST OHIO

CITY           SKY/WX    TMP DP  RH WIND       PRES   REMARKS
CINC-COVINGTON CLEAR     66  65  96 S3        30.11S FOG
CINC-LUNKEN    PTCLDY    67  67 100 CALM      30.11S FOG
HAMILTON       PTCLDY    66  64  93 CALM      30.11S FOG
DAYTON         CLEAR     68  66  93 CALM      30.12S
WRIGHT-PAT AFB CLEAR     67  67 100 CALM      30.11R
DAYTON GENERAL CLEAR     66  63  90 CALM      30.11S
WILMINGTON     CLEAR     65  63  93 CALM      30.12R FOG
$$

OHZ036-037-039>041-045>050-054>059-063>069-073>076-082>088-021000-
  CENTRAL AND SOUTHEAST OHIO

CITY           SKY/WX    TMP DP  RH WIND       PRES   REMARKS
COLUMBUS       PTCLDY    70  67  90 CALM      30.10S
OSU AIRPORT    PTCLDY    71  67  87 CALM      30.10S
BOLTON FIELD   NOT AVBL
RICKENBACK AFB NOT AVBL
NEWARK         MOCLDY    64  63  96 CALM      30.10S FOG
MARION         CLEAR     66  63  90 S3        30.10S FOG
LANCASTER      PTCLDY    64  62  93 CALM      30.11S FOG
ZANESVILLE     MOCLDY    68  64  87 CALM      30.10S FOG
NEW PHILLY     MOCLDY    68  67  96 CALM      30.11R FOG
$$


USA.gov is the U.S. government's official web portal to all federal, state and local government web resources and services.